User: anonymous   Login
Location: Pcim
(49.7500°N, 19.9670°E)
Time: 20:53:44
(UTC+02:00)
Language:

PRISM - Orbit

View from above orbital plane
View from above orbital plane
View from above satellite
View from above satellite

Ground track
Ground track

The orbit data is extracted from the following two-line orbital elements,

1 33493U 09002B   24112.69327114  .00041148  00000-0  21112-2 0  9993
2 33493  98.2118 155.5592 0014143  86.0732 274.2115 15.16321779830481
Epoch (UTC): 21 April 2024 16:38:18
Eccentricity: 0.0014143
inclination: 98.2118°
perigee height: 507 km
apogee height: 527 km
right ascension of ascending node: 155.5592°
argument of perigee: 86.0732°
revolutions per day: 15.16321779
mean anomaly at epoch: 274.2115°
orbit number at epoch: 83048

The dashed part of the orbit path shows where the satellite is in the earth's shadow,  

DLR